Вернуться в каталог

YAOGAN-46

АктивенВоенныеMEO
NORAD 66313·PAYLOAD·🇨🇳 China

Запущен Nov 3, 2025 с Wenchang Space Launch Site

Loading…

Ближайшие Пролёты (ближайшие 24 часа)

TLE

СвежийSource: Space-Track

Эпоха: Sep 14, 2026, 12:36 UTC

1 66313U 25250A   26257.52527804 -.00000026  00000-0  00000-0 0  9997
2 66313  20.0590 282.6316 0005207 255.6170 104.3409  5.31209588 16846

Отслеживайте YAOGAN-46 в реальном времени с AllMySat

Download on the App Store